Regional Weather Roundup
Issued by NWS Green Bay, WI

Home | Current Version | Previous Version | Text Only | Print | Product List | Glossary On
Versions: 1 2 3 4 5 6 7 8 9 10 11 12 13 14 15 16 17 18 19 20 21 22 23 24 25 26 27 28 29 30 31 32 33 34 35 36 37 38 39 40 41 42 43 44 45 46 47 48 49 50
000
ASUS43 KGRB 302310
RWRGRB

NORTH-CENTRAL AND NORTHEAST WISCONSIN REGIONAL WEATHER ROUNDUP
NATIONAL WEATHER SERVICE GREEN BAY WI
600 PM CDT TUE SEP 30 2014

WIZ005-009-010>012-018-019-010000-
NORTH CENTRAL WISCONSIN

CITY           SKY/WX    TMP DP  RH WIND       PRES   REMARKS
IRONWOOD       NOT AVBL
MANITOWISH WTR CLEAR     54  44  69 E3        30.00F
ARBOR VITAE    CLEAR     57  45  64 E6        30.00F
EAGLE RIVER    CLEAR     55  41  60 E6        30.01S HAZE
LAND O LAKES   CLEAR     56  43  63 SE3       30.02S
RHINELANDER    CLEAR     53  43  68 SE8       30.01F
PHILLIPS       CLOUDY    56  43  61 SE6       29.99R
ANTIGO         CLEAR     50  43  77 SE8       30.03S
TOMAHAWK       CLEAR     55  44  66 CALM      30.01R
MERRILL        CLEAR     55  44  68 SE5       30.00S
$$

WIZ013-073-010000-
NORTHEAST WISCONSIN

CITY           SKY/WX    TMP DP  RH WIND       PRES   REMARKS
IRON MOUNTAIN  CLEAR     55  43  63 E6        30.02S
MARINETTE      NOT AVBL
OCONTO         CLOUDY    49  44  82 CALM      30.05F
$$

WIZ017-030-035>037-045-010000-
CENTRAL WISCONSIN

CITY           SKY/WX    TMP DP  RH WIND       PRES   REMARKS
MEDFORD        MOCLDY    52  43  71 SE6       30.00S
WAUSAU         PTCLDY    53  43  68 SE8       30.01R
MOSINEE        NOT AVBL
MARSHFIELD     MOCLDY    51  43  74 SE8       30.00S
WISC RAPIDS    MOCLDY    50  41  71 SE9       30.04R
STEVENS POINT  MOCLDY    46  41  80 E7        30.03F
WAUPACA        CLOUDY    50  44  79 E6        30.05S
SHAWANO        CLOUDY    50  43  77 CALM      30.06S
CLINTONVILLE   CLOUDY    46  41  81 E3        30.05S
$$

WIZ038-039-048-051-010000-
FOX VALLEY

CITY           SKY/WX    TMP DP  RH WIND       PRES   REMARKS
NWS GREEN BAY  CLOUDY    49  43  80 NE5       30.06S
APPLETON       CLOUDY    46  41  81 VRB6      30.05S
OSHKOSH        CLOUDY    49  44  83 E7        30.04F
FOND DU LAC    CLOUDY    50  43  77 E8        30.05S
$$

WIZ022-050-052-010000-
EAST CENTRAL WISCONSIN

CITY           SKY/WX    TMP DP  RH WIND       PRES   REMARKS
STURGEON BAY   NOT AVBL
MANITOWOC      NOT AVBL
SHEBOYGAN      CLOUDY    49  43  80 NE9       30.06R
$$

LMZ563-521-522-541>543-010000-
LAKESHORE

STATION/POSITION TIME  TEMP    WIND        PRES    VSBY  WAVE
                       AIR SEA DIR/SP/G                  HT/PER
                 (UTC) (F)     (DEG/KT/KT) (MB)    (MI)  (FT/S)
SHEBOYGAN LKSHOR 2300   49 55   10/  8/  9 1018.5R
KEWAUNEE LKSHORE 2300   49      50/  4/ 10 1016.7R
NORTHPORT PIER   2300   51     230/  2/  3 1017.6F
N MID LAKE BUOY  2300   53 58   40/  6/  8 1018.1R         1/ 3
S GREEN BAY BUOY 2300   51     VRB  6/ 10  1018.6F
CHAMBERS ISLAND  2300   51      40/  5/  9 1017.9S
MENOMINEE LKSHOR 2300   51      60/  3/  5 1018.2F
$$



USA.gov is the U.S. government's official web portal to all federal, state and local government web resources and services.